Location: Wayah Bald
(35.1806°N, 83.5603°W)
Time: 08:48:28
(UTC-05:00)

Daily predictions for brighter satellites

Satellite Brightness Start Highest point End
(mag) Time Altitude Azimuth Time Altitude Azimuth Time Altitude Azimuth
Tiangong 2 1.8 18:48:30 10° NW 18:51:24 37° NNE 18:54:17 10° E
Cosmos 1238 Rocket 4.0 18:50:21 10° NE 18:51:45 13° ENE 18:53:09 10° ESE
Cosmos 1818 3.6 18:49:20 10° SSW 18:54:46 90° ESE 19:00:15 10° NNE
ASTRO F (AKARI) 4.4 18:51:38 10° NNE 18:55:11 84° E 18:58:32 10° SSW
Cosmos 44 Rocket 4.1 18:51:54 10° NW 18:56:30 53° WSW 19:01:01 10° S
Cosmos 2151 Rocket 3.6 18:57:33 10° S 19:02:01 77° E 19:06:33 10° N
Cosmos 407 Rocket 3.8 18:57:01 10° SSW 19:02:14 76° WNW 19:07:33 10° NNE
Cosmos 676 Rocket 3.9 19:00:25 10° SSW 19:05:34 79° ESE 19:10:48 10° NNE
Okean 1 Rocket 4.0 19:02:11 10° SSE 19:06:00 28° E 19:09:50 10° NNE
Cosmos 1833 4.2 19:01:02 10° S 19:06:39 63° ESE 19:12:16 10° NNE
ASTRO E2 4.4 19:08:19 10° WSW 19:11:44 27° SSW 19:15:09 10° SE
Cosmos 44 3.7 19:07:45 10° NW 19:12:03 56° WSW 19:16:14 10° SSE
H-2A R/B (2) 3.1 19:10:26 10° SSW 19:12:27 15° SSE 19:14:13 10° SE
Helios 1B rocket 4.0 19:13:07 14° ENE 19:14:20 16° E 19:16:53 10° SE
DELTA 2 R/B (1) 3.7 19:09:36 10° WNW 19:15:12 64° NNE 19:19:39 16° E
SL-16 R/B 2.5 19:14:03 10° NNW 19:19:43 74° WSW 19:25:21 10° SSE
Cosmos 1140 Rocket 3.4 19:19:32 10° S 19:24:37 70° ESE 19:29:45 10° NNE
BREEZE-M DEB (TANK) 2.6 19:19:41 10° SW 19:25:09 69° SE 19:26:44 23° ENE
Cosmos 1340 2.6 19:21:48 10° N 19:25:33 59° E 19:29:16 10° SSE
FengYun 1-2 T 4.3 19:20:56 10° SSE 19:26:11 51° ENE 19:31:30 10° N
SJ-6B 2.8 19:23:09 10° SSE 19:27:11 83° ENE 19:31:10 10° N
Okean 1-7 Rocket 4.3 19:27:20 10° NNE 19:31:23 31° ENE 19:34:49 13° SE
Cosmos 1025 Rocket 4.1 19:29:54 10° NNE 19:33:21 24° ENE 19:33:21 24° ENE
Cosmos 614 Rocket 3.9 19:29:43 10° S 19:34:44 64° ESE 19:39:46 10° NNE
Cosmos 2322 Rocket 3.2 19:31:25 10° NNW 19:36:49 49° WSW 19:42:11 10° S
Meteor 1-19 Rocket 4.2 19:31:34 10° N 19:37:13 64° E 19:42:56 10° SSE
Spot 2 Rocket 3.6 19:32:25 10° SSE 19:37:16 50° ENE 19:42:09 10° N
Gbstr 26 Del rocket 2.8 19:34:14 10° SW 19:38:06 68° NW 19:40:27 21° NE
Hubble Space Telescope 2.9 19:38:07 10° S 19:39:58 13° SSE 19:40:36 12° SSE
Cosmos 1536 Rocket 4.3 19:39:50 10° NNW 19:44:13 56° W 19:48:34 10° S
SL-08 ROCKET BODY 4.5 19:38:39 10° S 19:44:39 58° E 19:50:43 10° NNE
Abrixas rocket 2.5 19:41:34 10° SSW 19:44:47 45° SE 19:45:01 44° SE
FENGYUN 3A 3.6 19:39:32 10° SSE 19:44:56 79° ENE 19:50:22 10° N
Cosmos 1850 Rocket 3.9 19:42:19 10° S 19:47:34 72° ESE 19:52:53 10° NNE
Cosmos 2322 3.6 19:45:44 10° NNW 19:51:28 68° ENE 19:56:30 13° SSE
OAO 3 Copernicus 4.4 19:47:18 10° W 19:52:23 73° SSW 19:54:25 36° ESE
Meteor 1-13 Rocket 4.3 19:47:23 10° N 19:52:57 80° W 19:58:36 10° S
CZ-2D R/B 3.4 19:53:18 46° ENE 19:53:18 46° ENE 19:56:46 10° N
Cosmos 1536 2.7 19:49:20 10° S 19:53:20 85° E 19:57:20 10° N
HJ-1C 3.8 19:51:22 10° S 19:54:42 63° W 19:58:03 10° NNW
Spot 1 4.5 19:56:30 38° NE 19:56:30 38° NE 19:59:43 10° N
ALOS 2.4 19:51:18 10° S 19:55:56 73° WSW 20:00:37 10° NNW
H-2A R/B 2.5 19:58:16 25° SSE 20:00:21 85° ENE 20:04:05 10° N
Resurs 01 Rocket 1.6 19:56:49 10° SSE 20:01:13 84° WSW 20:05:38 10° NNW
Meteor 1-23 Rocket 4.2 19:56:33 10° N 20:02:18 60° E 20:07:29 12° SSE
COSMOS 2428 2.9 20:00:11 10° N 20:05:37 45° ENE 20:06:12 44° E
Cosmos 2237 4.2 20:00:25 10° NNW 20:06:05 59° ENE 20:07:51 41° ESE
Meteor 2-4 Rocket 3.5 20:01:46 10° N 20:07:19 83° E 20:12:43 10° S
GPS 2-04 Rocket1 2.9 20:04:17 10° WSW 20:08:32 61° SSE 20:08:40 60° SSE
Cosmos 2327 Rocket 4.4 20:05:19 10° S 20:11:29 81° E 20:17:49 10° N
Cosmos 2237 Rocket 4.2 20:08:31 10° NNE 20:09:51 14° NNE 20:09:51 14° NNE
Resurs 1-3 4.1 20:17:09 10° S 20:21:27 58° W 20:25:47 10° NNW
Intercosmos 24 4.4 20:19:06 10° SSW 20:22:59 67° W 20:28:19 10° N
Cosmos 2219 3.5 20:18:31 10° SSW 20:24:14 68° WNW 20:29:58 10° NNE
Tiangong 2 3.6 20:25:03 10° W 20:26:29 22° W 20:26:29 22° W
Cosmos 2360 Rocket 3.0 20:22:53 10° NNW 20:28:19 49° WSW 20:33:43 10° S
Helios 1A 3.8 20:31:13 44° NNW 20:31:13 44° NNW 20:34:09 10° NNW
Cosmos 2074 Rocket 4.3 20:24:40 10° SSW 20:30:51 65° W 20:37:06 10° N
Cosmos 2219 Rocket 3.3 20:25:39 10° N 20:28:48 29° NNE 20:28:48 29° NNE
Cosmos 2184 Rocket 4.3 20:26:27 10° SSW 20:32:43 65° W 20:38:58 10° N
Helios 1B rocket 4.0 20:49:28 33° WNW 20:49:42 33° WNW 20:53:25 10° SW
Cosmos 2333 Rocket 3.7 20:55:05 10° NNW 20:57:35 26° N 20:57:35 26° N
DELTA 2 R/B (1) 4.4 20:56:11 10° WNW 21:00:26 46° WSW 21:00:26 46° WSW
Cosmos 2285 Rocket 4.2 20:57:43 10° NNW 21:03:36 68° WNW 21:03:36 68° WNW
H-2A R/B 4.4 21:24:38 10° SW 22:02:34 15° E 22:20:35 10° E
H-2A R/B 4.4 21:24:38 10° SW 22:02:35 15° E 22:20:35 10° E
H-2A R/B 4.4 21:24:38 10° SW 22:02:36 15° E 22:20:34 10° E
H-2A R/B 4.4 21:24:38 10° SW 22:02:36 15° E 22:20:35 10° E
H-2A R/B 4.4 21:24:38 10° SW 22:02:35 15° E 22:20:34 10° E
